This is the latest recevied weather packets stored in our database for station/object K9YK-13. If no packets are shown the sender has not sent any weather packets the latest 10 day(s).
| Time | Temp. | Humidity | Pressure | Rain* | Wind** | Luminosity | Snow |
|---|---|---|---|---|---|---|---|
| 1777803071 | 5° C | 84% | 0 hPa | 0 mm | - | - | - |
| 1777802771 | 5° C | 78% | 0 hPa | 0 mm | - | - | - |
| 1777802471 | 5.56° C | 80% | 0 hPa | 0 mm | - | - | - |
| 1777802171 | 3.33° C | 84% | 0 hPa | 0 mm | - | - | - |
| 1777801871 | 4.44° C | 85% | 0 hPa | 0 mm | - | - | - |
| 1777801571 | 5° C | 80% | 0 hPa | 0 mm | - | - | - |
| 1777801271 | 3.89° C | 83% | 0 hPa | 0 mm | - | - | - |
| 1777800971 | 4.44° C | 86% | 0 hPa | 0 mm | - | - | - |
| 1777800671 | 4.44° C | 78% | 0 hPa | 0 mm | - | - | - |
| 1777800371 | 3.89° C | 82% | 0 hPa | 0 mm | - | - | - |
| 1777800071 | 3.33° C | 87% | 0 hPa | 0 mm | - | - | - |
| 1777799771 | 4.44° C | 85% | 0 hPa | 0 mm | - | - | - |
| 1777799471 | 4.44° C | 82% | 0 hPa | 0 mm | - | - | - |
| 1777799171 | 4.44° C | 84% | 0 hPa | 0 mm | - | - | - |
| 1777798871 | 3.89° C | 87% | 0 hPa | 0 mm | - | - | - |
| 1777798571 | 3.89° C | 80% | 0 hPa | 0 mm | - | - | - |
| 1777798271 | 4.44° C | 85% | 0 hPa | 0 mm | - | - | - |
| 1777797971 | 4.44° C | 89% | 0 hPa | 0 mm | - | - | - |
| 1777797671 | 4.44° C | 86% | 0 hPa | 0 mm | - | - | - |
| 1777797371 | 4.44° C | 85% | 0 hPa | 0 mm | - | - | - |
| 1777797071 | 3.89° C | 87% | 0 hPa | 0 mm | - | - | - |
| 1777796771 | 3.89° C | 89% | 0 hPa | 0 mm | - | - | - |
| 1777796471 | 4.44° C | 87% | 0 hPa | 0 mm | - | - | - |
| 1777796171 | 3.89° C | 88% | 0 hPa | 0 mm | - | - | - |
| 1777795871 | 4.44° C | 89% | 0 hPa | 0 mm | - | - | - |
* Rain latest hour (hover to see other rain measurements)
** Current wind speed in m/s (hover to see current wind gust speed)